IRNSS-1E

Last updated on Sun Oct 06 2024 00:02:40 GMT+0000 (Coordinated Universal Time)

1 41241U 16003A 24279.51520591 -.00000274 00000+0 00000+0 0 9996 2 41241 31.8828 71.8312 0020880 180.1274 60.0150 1.00276482 31867
UTC large
Height (km)
Speed (km/s)
/
Latitude / Longitude
Inclination (degrees)
Orbital Period (minutes)
Azimuth
Elevation
Range (km)
Doppler Factor

Next 0 passes for location: London (51.5072 / 0.1276)

Sorry there are no passes over London.